Presure
194 184 131 124 203 182 191 238 186 167 196 191 194 192 186 187 185 169 169 189 194 185 186 186 172 174 165 150 169 169 172 208 207 204 171 171 183 188 188 210 186 167 173
124 113 149 155 149 199 191 252 195 228 219 174 168 166 222 210 168 210 184 206 197 168 165 164 156 153 174 176 161 210 207 206 204 219 222 190 185 175 175 182 175 185 186
193 207 195 118 157 189 199 213 211 200 217 163 175 205 203 173 174 157 173 155 155 168 159 164 166 165 181 205 191 204 225 217 242 203 196 191 195 197 194 194 203 208 201
115 211 151 118 125 113 178 212 212 206 212 205 195 192 194 178 193 180 203 188 175 161 153 174 187 198 214 205 197 185 180 187 191 206 221 212 212 212 210 202 199 202 208
203 119 168 206 121 168 170 209 188 196 201 199 202 192 198 190 192 193 187 183 184 177 181 206 203 182 218 192 207 184 171 178 169 178 193 208 171 201 174 197 185 197 196
210 158 203 151 132 153 115 197 214 198 204 201 198 196 190 190 187 185 183 191 178 182 184 178 173 190 172 174 194 198 221 204 177 206 192 240 214 192 203 203 191 248 278
230 242 235 213 214 192 146 224 203 187 237 247 230 221 199 201 198 200 204 220 188 221 180 175 184 200 209 222 215 229 208 207 201 235 204 219 219 202 215 214 229 282 270
170 162 196 174 127 191 220 184 197 196 204 205 211 193 196 217 220 200 201 203 206 210 216 214 215 218 225 207 228 209 193 247 192 257 221 210 215 217 215 275 287 269 259
138 148 161 167 166 172 167 181 178 223 217 215 214 222 219 216 211 200 215 222 220 215 217 217 209 218 191 156 244 247 211 173 230 215 199 291 305 295 255 288 267 261 259
152 169 182 149 165 164 182 167 201 173 183 225 213 208 213 230 226 220 216 221 212 210 210 204 211 207 219 213 213 243 334 200 260 308 213 325 309 297 282 272 263 254 250
206 180 191 168 194 155 143 168 156 190 242 246 232 232 191 230 228 224 181 203 207 208 203 211 211 215 222 263 239 319 287 192 298 308 302 302 304 281 274 268 259 251 246
145 153 171 163 199 186 171 121 218 218 189 216 201 222 239 229 231 223 211 213 206 211 219 225 207 217 275 264 262 294 293 292 281 302 291 292 284 277 263 256 245 242 240
179 156 164 183 170 204 193 127 142 205 212 175 204 199 211 205 204 234 224 208 208 232 226 207 215 223 266 240 251 291 282 290 286 289 275 279 267 266 255 252 249 240 240
157 171 178 167 165 189 173 239 181 223 227 200 200 207 192 203 202 229 218 212 197 188 209 230 221 221 260 245 225 246 240 289 284 281 273 266 264 256 252 240 240 238 248
198 196 192 167 196 166 207 183 193 210 213 213 214 190 197 203 216 211 193 234 208 211 206 213 224 262 250 241 236 262 246 239 277 265 265 253 260 248 253 249 245 241 242
167 175 187 170 208 174 175 201 181 200 209 192 214 207 201 226 226 233 216 207 206 202 222 229 261 242 234 244 246 247 249 258 253 251 251 265 263 259 247 240 239 240 246
159 169 180 166 196 202 180 190 224 197 204 202 216 211 239 236 239 192 209 221 227 222 227 255 241 226 220 248 256 243 238 249 241 254 263 244 242 256 257 252 261 269 273
168 172 181 195 180 187 204 212 204 207 203 212 234 245 253 244 213 195 209 230 227 229 207 236 235 217 222 251 265 277 265 257 242 238 249 242 241 238 232 244 237 264 249
172 184 189 188 197 210 232 212 199 193 217 234 211 235 236 226 219 225 231 235 248 234 244 230 216 214 236 236 245 227 276 264 263 255 242 254 241 240 235 233 233 236 239
251 202 215 221 202 204 219 246 249 236 250 218 219 230 214 217 219 220 237 251 244 229 217 219 223 226 236 237 241 239 240 245 253 268 262 252 243 256 251 246 243 228 228
244 248 228 245 219 226 203 193 222 219 219 211 219 223 225 213 229 245 239 238 213 218 223 231 240 240 221 239 238 235 233 234 232 237 239 235 243 251 247 237 251 249 241
242 261 225 209 214 212 231 225 214 221 214 216 217 219 231 239 244 215 221 226 228 236 227 230 240 242 243 249 244 234 233 237 232 228 229 230 234 228 229 241 249 239 236
222 223 234 234 215 211 209 214 208 208 220 217 238 252 239 216 233 232 229 227 226 237 236 249 247 249 252 247 236 245 256 249 240 236 229 229 230 232 238 237 234 232 249
212 211 205 205 205 205 211 210 217 219 250 250 230 214 232 233 228 233 236 234 237 245 251 253 253 249 244 243 246 243 235 230 231 233 234 233 230 231 231 236 238 241 247
225 223 214 217 224 215 221 249 251 238 217 241 235 228 227 232 237 241 242 250 256 254 254 257 250 243 244 243 241 241 244 246 244 241 241 241 241 241 242 243 244 247 249
225 222 237 255 250 244 229 224 236 230 227 232 238 242 247 254 261 263 255 250 251 246 248 250 251 252 280 319 326 339 333 333 331 326 315 298 282 282 276 269 266 261 257
Wind_Speed
26 23 23 26 34 30 36 38 28 32 50 50 53 54 52 51 47 40 43 41 46 45 47 49 49 53 57 46 60 56 62 55 48 57 70 70 71 73 72 70 72 69 72
27 18 26 26 28 37 34 33 37 39 44 40 40 37 37 41 40 39 38 41 38 40 44 48 49 47 57 60 56 50 48 48 49 49 55 69 73 74 72 70 69 70 70
26 31 28 22 30 33 37 34 34 40 39 37 39 46 45 45 45 41 41 41 45 47 50 55 60 56 58 51 52 42 44 49 45 61 58 63 64 69 70 71 73 74 74
19 28 26 18 31 21 28 38 38 39 41 42 42 43 44 44 49 47 51 51 53 50 47 55 52 55 50 51 52 52 52 51 51 54 58 58 60 66 73 76 78 83 83
35 21 28 39 30 35 29 43 40 39 42 42 47 47 49 48 50 50 51 51 51 52 53 56 51 54 54 52 59 61 58 60 54 56 63 66 56 70 55 71 60 71 70
39 28 43 36 29 35 22 45 49 46 48 50 49 49 49 50 50 50 55 57 52 54 55 53 58 57 57 58 63 64 61 68 62 70 69 64 71 66 71 75 66 66 53
30 36 41 41 45 43 37 48 49 52 52 51 58 56 54 58 61 62 58 59 55 57 56 56 62 65 62 60 63 57 61 68 72 69 69 69 71 69 71 70 67 53 52
35 44 40 49 34 37 45 42 48 54 59 59 56 52 52 59 56 56 58 57 58 59 56 59 59 56 56 59 62 64 55 74 62 69 70 68 68 68 69 51 49 51 56
31 49 61 37 48 50 49 54 63 54 57 59 60 58 58 57 56 57 58 57 57 57 56 58 56 55 53 46 76 71 64 51 60 63 67 53 46 45 60 41 47 48 55
64 84 79 36 45 43 71 47 70 60 70 57 60 61 61 57 54 53 53 49 50 53 54 54 52 53 72 58 55 66 49 64 56 47 63 36 36 35 37 39 42 47 50
29 67 69 61 80 54 41 75 47 62 47 46 51 53 59 51 51 51 50 56 52 52 51 58 59 61 66 65 60 46 44 42 42 41 37 31 30 34 37 37 41 44 44
41 48 57 54 76 80 62 39 68 63 51 48 61 51 55 54 52 52 56 55 58 58 62 65 59 62 71 61 58 46 44 39 40 36 33 30 28 32 37 40 42 46 45
98 59 57 91 60 98 89 46 55 60 66 55 59 60 54 53 56 58 55 58 59 64 59 56 60 64 65 55 53 44 40 38 38 34 34 31 33 31 33 38 37 41 45
60 78 92 64 61 86 65 48 73 61 62 67 66 63 55 66 63 65 64 61 56 57 57 71 64 65 64 57 52 52 46 35 33 33 33 30 32 32 33 38 41 45 47
97 101 112 63 109 69 93 74 85 76 68 69 68 59 63 73 73 79 58 65 65 63 61 63 67 71 62 59 57 53 51 45 33 34 33 34 33 34 34 37 39 41 43
71 87 103 74 94 82 80 90 72 79 84 69 82 83 72 73 77 67 70 67 70 66 74 73 68 61 60 63 61 55 52 46 44 41 37 32 34 39 43 44 46 47 47
74 80 93 69 106 101 97 104 83 104 91 88 92 91 68 69 68 63 69 71 72 72 75 70 64 62 61 64 64 63 61 54 52 46 41 40 38 38 39 39 39 41 40
83 84 101 108 106 106 111 96 111 99 94 98 82 74 68 66 68 69 73 76 77 77 65 69 67 65 68 63 59 51 52 54 57 54 50 49 46 45 44 42 43 39 41
79 101 117 105 111 115 88 114 106 91 89 83 78 76 71 72 74 80 85 87 84 74 72 71 70 71 73 68 62 64 50 54 53 53 54 53 53 52 53 51 49 47 45
77 119 109 115 104 112 107 78 78 81 78 81 76 79 75 81 83 84 87 76 77 77 76 77 79 79 71 70 64 64 61 56 52 51 53 54 57 55 57 54 55 56 54
96 86 116 92 103 96 83 77 75 74 76 73 85 89 89 84 94 88 82 83 82 85 85 83 78 74 78 66 65 66 67 66 60 55 54 53 51 56 59 60 58 58 61
85 72 88 73 72 67 79 78 75 84 83 91 92 91 91 92 85 87 87 89 90 88 88 88 83 79 75 73 67 66 69 69 68 65 63 61 59 57 60 58 61 64 64
60 64 72 76 75 74 77 81 78 84 93 93 94 86 85 90 91 90 90 93 93 93 92 92 88 85 81 75 73 73 71 70 72 69 69 69 69 66 61 63 66 66 64
67 69 69 72 76 80 86 89 94 95 87 87 92 93 96 98 99 97 98 98 98 101 98 95 92 87 84 81 79 76 75 75 76 76 75 76 76 75 74 71 72 72 70
81 82 79 83 89 89 95 90 86 88 92 94 94 96 99 103 104 103 104 105 103 102 100 97 94 92 91 89 88 88 89 87 86 85 85 84 84 84 83 81 79 79 79
83 86 85 78 81 86 90 91 93 95 97 100 102 104 105 106 105 102 102 103 102 102 103 101 100 100 93 83 79 73 73 72 73 75 79 83 86 87 86 84 82 79 79
Wind_Direction
266 277 350 354 269 270 264 253 274 271 251 253 256 258 260 265 270 272 265 266 267 270 269 272 270 270 271 274 275 276 279 271 270 264 260 261 260 261 261 267 263 265 264
350 360 325 310 326 264 270 256 267 255 254 271 269 274 262 266 269 269 272 267 268 272 274 273 273 279 278 276 279 268 271 272 272 270 262 261 262 264 265 265 261 264 267
277 266 283 350 316 283 265 262 256 257 258 278 275 266 267 270 272 273 276 269 270 274 275 276 275 276 278 272 273 265 272 271 269 271 269 264 265 266 267 268 269 269 269
328 277 315 341 335 347 286 268 264 265 261 263 266 267 269 272 274 273 274 271 272 274 280 281 286 283 271 267 270 274 272 273 274 272 267 266 268 268 270 270 270 273 273
291 320 294 276 323 299 289 273 280 274 270 269 265 271 271 275 276 275 276 274 273 270 274 285 282 280 276 277 270 272 272 272 274 275 275 268 269 270 271 270 270 273 274
300 299 292 312 307 315 323 288 272 282 277 274 272 269 271 273 276 276 276 274 270 274 281 273 273 279 274 274 274 272 278 271 277 273 280 274 270 273 276 270 275 282 265
296 280 280 291 290 291 308 282 285 288 279 275 272 271 275 272 274 276 276 276 277 277 278 279 278 282 280 282 279 277 275 271 273 288 279 276 272 273 274 272 274 267 265
313 303 305 307 310 293 287 295 288 290 283 283 276 285 285 274 273 277 279 280 282 282 279 279 279 283 290 277 293 272 292 292 279 290 272 274 273 273 275 267 261 264 266
299 303 302 298 300 306 312 310 310 280 279 280 281 276 277 277 280 286 279 276 277 277 277 277 282 290 279 293 297 296 278 284 280 272 279 281 272 267 275 257 255 264 264
303 297 295 301 302 305 302 311 303 313 305 281 287 289 288 278 277 276 276 276 278 282 280 281 299 300 299 291 289 295 295 280 283 286 278 275 261 256 256 256 256 260 262
312 289 283 301 285 296 307 304 307 299 276 282 287 288 291 283 280 277 289 281 284 287 288 296 298 297 298 305 298 303 295 286 293 291 287 283 259 254 252 253 253 257 262
328 308 308 298 282 294 302 312 290 290 295 283 289 294 293 286 284 283 286 288 288 288 291 292 298 299 314 310 306 304 302 298 297 287 287 275 269 251 249 249 251 255 260
261 306 306 282 305 280 294 305 303 294 290 298 285 290 299 295 297 288 286 290 293 294 293 298 301 309 312 308 307 304 301 297 297 285 283 278 262 255 250 255 255 259 261
298 277 270 306 305 294 301 281 295 289 291 287 288 291 292 298 298 292 289 290 290 292 296 301 305 307 310 306 299 307 304 299 297 286 276 280 268 263 259 261 261 260 260
245 253 259 298 269 300 280 298 295 291 292 292 291 292 297 299 294 297 292 296 294 296 298 300 304 306 307 305 304 306 304 300 293 291 284 284 273 274 266 263 261 263 266
289 271 259 290 266 292 296 281 293 290 289 294 289 291 294 292 291 289 291 293 294 294 299 302 302 304 309 306 305 300 300 298 296 292 292 280 273 269 270 272 270 269 267
291 286 269 298 266 272 286 283 278 285 288 290 287 291 291 291 289 290 290 291 293 295 302 301 302 302 303 302 299 298 298 292 291 286 281 281 279 277 273 272 277 271 259
276 279 266 260 269 277 274 275 281 281 286 286 290 291 290 289 288 290 293 299 298 299 291 302 302 300 305 300 295 287 285 285 286 286 281 281 278 276 272 273 273 269 259
268 258 254 263 267 269 275 274 278 284 284 287 286 294 295 294 297 301 302 301 300 296 297 300 300 300 300 299 297 295 281 282 280 279 279 272 273 270 271 271 270 270 268
251 248 254 258 265 267 271 278 280 277 286 282 290 300 296 301 300 299 298 292 291 295 297 298 297 297 295 296 294 292 289 285 281 277 275 275 274 271 269 267 265 268 267
246 251 250 257 261 266 269 275 280 289 294 294 300 297 298 297 297 295 293 294 296 297 295 292 294 293 291 290 290 289 288 286 284 280 276 274 276 273 272 270 269 264 261
242 256 250 268 276 281 285 286 294 293 295 296 294 293 293 293 291 295 294 293 293 293 293 294 293 293 293 293 288 284 282 278 278 278 277 275 271 270 273 272 269 266 265
271 275 272 272 287 291 292 293 293 293 291 292 292 290 290 293 290 291 292 292 293 294 294 295 294 294 294 291 288 286 281 277 276 275 276 276 275 274 272 271 268 267 269
285 285 288 289 290 290 290 290 288 289 289 288 290 295 293 293 294 294 293 293 294 293 294 294 294 294 293 291 289 284 282 281 280 279 277 275 276 275 274 272 271 269 264
277 279 284 284 281 285 285 286 287 285 290 288 289 290 291 291 291 292 292 293 293 294 293 292 291 290 289 289 287 285 283 281 278 276 275 274 273 273 273 272 271 270 269
281 282 285 286 285 284 287 289 289 290 291 291 292 292 292 291 291 292 291 291 291 290 291 290 289 288 286 282 280 277 276 274 271 269 267 267 268 267 265 265 264 263 263